Location: Sevilla
(37.3933°N, 5.9839°W)
Time: 04:57:16
(UTC+02:00)

Transit 2A - Pass Details

Date: 29 June 2024
Orbit: 591 x 960 km, 66.7° (Epoch: 15 July)

Event Time Altitude Azimuth Distance (km) Brightness Sun altitude
Rises 00:13:15 0° 338° (NNW) 3,565 10.9 -21.7°
Reaches altitude 10° 00:15:56 10° 346° (NNW) 2,653 9.8 -21.9°
Maximum altitude 00:21:47 40° 55° (NE) 1,378 7.3 -22.6°
Enters shadow 00:24:04 30° 98° (E) 1,642 7.3 -22.8°
Drops below altitude 10° 00:27:41 10° 124° (SE) 2,679 - -23.2°
Sets 00:30:24 0° 131° (SE) 3,604 - -23.4°
